Weather reports worldwide

Advertisment
Gijon, Spain (8014): temperature & dewpoint: 06.12.2018 00:00:00 - 12.12.2018 00:00:00 (CET)Gijon, Spain (8014): wind speed: 06.12.2018 00:00:00 - 12.12.2018 00:00:00 (CET)Gijon, Spain (8014): wind direction: 06.12.2018 00:00:00 - 12.12.2018 00:00:00 (CET)Gijon, Spain (8014): reduced air pressure: 06.12.2018 00:00:00 - 12.12.2018 00:00:00 (CET)Gijon, Spain (8014): visibility: 06.12.2018 00:00:00 - 12.12.2018 00:00:00 (CET)
Date & Time tt [°C] td [°C] ff [km/h] ff [kn] dd ppp [hPa] vv [km]
12.12.2018 00:00:00 - - - - - - -
11.12.2018 23:00:00 - - - - - - -
11.12.2018 22:00:00 - - - - - - -
11.12.2018 21:00:00 - - - - - - -
11.12.2018 20:00:00 - - - - - - -
11.12.2018 19:00:00 12,0 7,9 4 2 WSW 1022,0 30
11.12.2018 18:00:00 - - - - - - -
11.12.2018 17:00:00 - - - - - - -
11.12.2018 16:00:00 14,6 8,8 0 0 N 1020,3 30
11.12.2018 15:00:00 - - - - - - -
11.12.2018 14:00:00 - - - - - - -
11.12.2018 13:00:00 14,6 4,6 0 0 N 1020,6 25
11.12.2018 12:00:00 - - - - - - -
11.12.2018 11:00:00 - - - - - - -
11.12.2018 10:00:00 9,8 0,9 - - - 1020,7 25
11.12.2018 09:00:00 - - - - - - -
11.12.2018 08:00:00 - - - - - - -
11.12.2018 07:00:00 8,0 2,3 - - - 1020,7 15
11.12.2018 06:00:00 - - - - - - -
11.12.2018 05:00:00 - - - - - - -
11.12.2018 04:00:00 - - - - - - -
11.12.2018 03:00:00 - - - - - - -
11.12.2018 02:00:00 - - - - - - -
11.12.2018 01:00:00 - - - - - - -
11.12.2018 00:00:00 - - - - - - -
10.12.2018 23:00:00 - - - - - - -
10.12.2018 22:00:00 - - - - - - -
10.12.2018 21:00:00 - - - - - - -
10.12.2018 20:00:00 - - - - - - -
10.12.2018 19:00:00 12,8 9,3 - - - 1028,0 15
10.12.2018 18:00:00 - - - - - - -
10.12.2018 17:00:00 - - - - - - -
10.12.2018 16:00:00 13,8 9,0 - - - 1028,6 15
10.12.2018 15:00:00 - - - - - - -
10.12.2018 14:00:00 - - - - - - -
10.12.2018 13:00:00 12,8 9,6 - - - 1031,0 20
10.12.2018 12:00:00 - - - - - - -
10.12.2018 11:00:00 - - - - - - -
10.12.2018 10:00:00 9,8 6,3 - - - 1032,1 15
10.12.2018 09:00:00 - - - - - - -
10.12.2018 08:00:00 - - - - - - -
10.12.2018 07:00:00 9,6 7,0 - - - 1032,6 15
10.12.2018 06:00:00 - - - - - - -
10.12.2018 05:00:00 - - - - - - -
10.12.2018 04:00:00 - - - - - - -
10.12.2018 03:00:00 - - - - - - -
10.12.2018 02:00:00 - - - - - - -
10.12.2018 01:00:00 - - - - - - -
10.12.2018 00:00:00 - - - - - - -
09.12.2018 23:00:00 - - - - - - -
09.12.2018 22:00:00 - - - - - - -
09.12.2018 21:00:00 - - - - - - -
09.12.2018 20:00:00 - - - - - - -
09.12.2018 19:00:00 14,2 9,0 - - - 1033,1 15
09.12.2018 18:00:00 - - - - - - -
09.12.2018 17:00:00 - - - - - - -
09.12.2018 16:00:00 15,0 8,7 - - - 1032,0 15
09.12.2018 15:00:00 - - - - - - -
09.12.2018 14:00:00 - - - - - - -
09.12.2018 13:00:00 14,4 10,2 - - - 1032,5 30
09.12.2018 12:00:00 - - - - - - -
09.12.2018 11:00:00 - - - - - - -
09.12.2018 10:00:00 13,6 11,3 - - - 1031,0 30
09.12.2018 09:00:00 - - - - - - -
09.12.2018 08:00:00 - - - - - - -
09.12.2018 07:00:00 14,2 8,6 - - - 1029,4 20
09.12.2018 06:00:00 - - - - - - -
09.12.2018 05:00:00 - - - - - - -
09.12.2018 04:00:00 - - - - - - -
09.12.2018 03:00:00 - - - - - - -
09.12.2018 02:00:00 - - - - - - -
09.12.2018 01:00:00 - - - - - - -
09.12.2018 00:00:00 - - - - - - -
08.12.2018 23:00:00 - - - - - - -
08.12.2018 22:00:00 - - - - - - -
08.12.2018 21:00:00 - - - - - - -
08.12.2018 20:00:00 - - - - - - -
08.12.2018 19:00:00 14,4 9,2 - - - 1027,5 20
08.12.2018 18:00:00 - - - - - - -
08.12.2018 17:00:00 - - - - - - -
08.12.2018 16:00:00 15,8 6,3 - - - 1027,5 30
08.12.2018 15:00:00 - - - - - - -
08.12.2018 14:00:00 - - - - - - -
08.12.2018 13:00:00 13,4 5,8 - - - 1028,4 30
08.12.2018 12:00:00 - - - - - - -
08.12.2018 11:00:00 - - - - - - -
08.12.2018 10:00:00 9,2 5,2 - - - 1029,9 30
08.12.2018 09:00:00 - - - - - - -
08.12.2018 08:00:00 - - - - - - -
08.12.2018 07:00:00 9,6 4,0 - - - 1029,3 15
08.12.2018 06:00:00 - - - - - - -
08.12.2018 05:00:00 - - - - - - -
08.12.2018 04:00:00 - - - - - - -
08.12.2018 03:00:00 - - - - - - -
08.12.2018 02:00:00 - - - - - - -
08.12.2018 01:00:00 - - - - - - -
08.12.2018 00:00:00 - - - - - - -
07.12.2018 23:00:00 - - - - - - -
07.12.2018 22:00:00 - - - - - - -
07.12.2018 21:00:00 - - - - - - -
07.12.2018 20:00:00 - - - - - - -
07.12.2018 19:00:00 12,8 10,0 - - - 1027,6 20
07.12.2018 18:00:00 - - - - - - -
07.12.2018 17:00:00 - - - - - - -
07.12.2018 16:00:00 13,2 10,9 - - - 1026,2 20
07.12.2018 15:00:00 - - - - - - -
07.12.2018 14:00:00 - - - - - - -
07.12.2018 13:00:00 18,4 9,7 - - - 1023,4 30
07.12.2018 12:00:00 - - - - - - -
07.12.2018 11:00:00 - - - - - - -
07.12.2018 10:00:00 10,8 3,4 - - - 1024,3 30
07.12.2018 09:00:00 - - - - - - -
07.12.2018 08:00:00 - - - - - - -
07.12.2018 07:00:00 10,2 3,7 - - - 1025,2 15
07.12.2018 06:00:00 - - - - - - -
07.12.2018 05:00:00 - - - - - - -
07.12.2018 04:00:00 - - - - - - -
07.12.2018 03:00:00 - - - - - - -
07.12.2018 02:00:00 - - - - - - -
07.12.2018 01:00:00 - - - - - - -
07.12.2018 00:00:00 - - - - - - -
06.12.2018 23:00:00 - - - - - - -
06.12.2018 22:00:00 - - - - - - -
06.12.2018 21:00:00 - - - - - - -
06.12.2018 20:00:00 - - - - - - -
06.12.2018 19:00:00 14,0 8,8 - - - 1028,8 20
06.12.2018 18:00:00 - - - - - - -
06.12.2018 17:00:00 - - - - - - -
06.12.2018 16:00:00 16,8 8,0 - - - 1028,5 30
06.12.2018 15:00:00 - - - - - - -
06.12.2018 14:00:00 - - - - - - -
06.12.2018 13:00:00 16,4 9,3 - - - 1029,4 30
06.12.2018 12:00:00 - - - - - - -
06.12.2018 11:00:00 - - - - - - -
06.12.2018 10:00:00 12,8 9,3 - - - 1028,7 15
06.12.2018 09:00:00 - - - - - - -
06.12.2018 08:00:00 - - - - - - -
06.12.2018 07:00:00 11,1 9,4 8 4 SSW 1026,9 15
06.12.2018 06:00:00 - - - - - - -
06.12.2018 05:00:00 - - - - - - -
06.12.2018 04:00:00 - - - - - - -
06.12.2018 03:00:00 - - - - - - -
06.12.2018 02:00:00 - - - - - - -
06.12.2018 01:00:00 - - - - - - -
06.12.2018 00:00:00 - - - - - - -

tt = temperature
td = dewpoint
ff = wind speed
dd = wind direction
ppp = reduced air pressure
vv = visibility

Next stations